Date,TemperatureHighF,TemperatureAvgF,TemperatureLowF,DewpointHighF,DewpointAvgF,DewpointLowF,HumidityHigh,HumidityAvg,HumidityLow,PressureMaxIn,PressureMinIn,WindSpeedMaxMPH,WindSpeedAvgMPH,GustSpeedMaxMPH,PrecipitationSumIn
2013-2-1,57,48,41,33,28,21,54,46,33,30.33,30.25,7,0,8,0.00
2013-2-2,56,48,40,36,31,27,82,51,40,30.34,30.25,4,0,5,0.02
2013-2-3,49,43,38,40,35,29,95,74,55,30.25,30.13,17,2,18,0.09
2013-2-4,56,46,39,34,27,16,65,48,29,30.22,30.12,10,1,11,0.00
2013-2-5,56,48,43,35,27,10,58,46,22,30.14,30.00,14,2,14,0.00
2013-2-6,51,43,34,32,21,0,87,45,17,30.20,29.98,11,2,13,0.00
2013-2-7,52,43,31,39,25,2,97,56,19,30.20,29.93,18,4,21,0.00
2013-2-8,31,26,22,31,25,21,97,96,95,30.02,29.88,19,3,24,0.00
2013-2-9,33,26,20,31,24,19,96,94,90,30.25,30.02,12,2,17,0.25
2013-2-10,38,28,23,31,25,19,95,88,65,30.25,30.14,11,1,12,0.12
2013-2-11,34,29,24,26,12,0,95,54,27,30.42,30.19,22,6,22,0.02
2013-2-12,42,35,27,16,10,3,43,35,30,30.50,30.41,12,3,14,0.00
2013-2-13,49,40,32,21,15,8,46,36,28,30.43,30.31,15,2,17,0.00
2013-2-14,52,45,38,26,22,18,50,40,30,30.34,30.25,16,4,17,0.00
2013-2-15,55,46,40,21,15,1,46,29,17,30.40,30.28,21,3,21,0.00
2013-2-16,61,48,40,26,11,-6,30,23,11,30.39,30.09,7,0,8,0.00
2013-2-17,53,45,39,32,18,11,68,35,21,30.09,29.96,10,2,13,0.00
2013-2-18,52,43,38,33,23,12,82,46,25,30.08,29.94,19,4,20,0.00
2013-2-19,39,30,26,31,28,20,97,94,47,29.94,29.73,25,6,27,0.00
2013-2-20,32,26,19,31,25,18,97,96,94,30.16,29.71,10,1,14,0.01
2013-2-21,33,28,24,29,23,13,97,80,53,30.29,30.13,12,3,14,0.13
2013-2-22,44,35,24,28,18,10,84,51,29,30.38,30.28,8,1,8,0.34
2013-2-23,54,40,30,29,24,10,85,55,17,30.31,29.98,21,4,25,0.02
2013-2-24,38,32,26,10,2,-6,41,28,17,30.40,30.08,25,10,33,0.00
2013-2-25,52,40,30,18,7,-7,43,26,14,30.41,30.19,6,1,11,0.00
2013-2-26,49,40,30,21,11,-1,60,32,18,30.30,30.12,11,3,16,0.00
2013-2-27,46,40,34,12,5,0,29,23,16,30.47,30.30,16,5,18,0.00
2013-2-28,55,46,35,16,9,1,30,22,17,30.50,30.44,10,3,14,0.00